| time (UTC) | temp F | wind direction | speed knots | gust knots | rain 1hr in | rain 24hr in | rain mn in | humidity % | barometer mb |
| 20260906180042 | 59 | 44 | 0.9 | 2.6 | 0.00 | 0.10 | 0.03 | 90 | 1003.7 |
| 20260906174540 | 59 | 340 | 0.0 | 5.2 | 0.00 | 0.10 | 0.03 | 90 | 1003.7 |
| 20260906173035 | 59 | 96 | 0.9 | 4.3 | 0.00 | 0.10 | 0.03 | 89 | 1003.7 |
| 20260906171537 | 60 | 254 | 0.0 | 5.2 | 0.00 | 0.10 | 0.03 | 87 | 1003.7 |
| 20260906170136 | 61 | 269 | 1.7 | 9.6 | 0.00 | 0.10 | 0.03 | 84 | 1003.7 |
| 20260906164542 | 62 | 213 | 1.7 | 7.0 | 0.00 | 0.10 | 0.03 | 83 | 1003.6 |
| 20260906163045 | 63 | 134 | 0.9 | 7.8 | 0.00 | 0.10 | 0.03 | 83 | 1003.6 |
| 20260906161533 | 63 | 70 | 1.7 | 7.8 | 0.00 | 0.10 | 0.03 | 81 | 1003.7 |
| 20260906160046 | 64 | 219 | 2.6 | 8.7 | 0.00 | 0.10 | 0.03 | 80 | 1003.7 |
| 20260906154534 | 64 | 10 | 2.6 | 11.3 | 0.00 | 0.10 | 0.03 | 80 | 1003.7 |
| 20260906153037 | 65 | 221 | 0.9 | 9.6 | 0.00 | 0.10 | 0.03 | 79 | 1003.6 |
| 20260906151530 | 65 | 32 | 1.7 | 6.1 | 0.00 | 0.10 | 0.03 | 79 | 1003.7 |
| 20260906150044 | 65 | 28 | 0.9 | 9.6 | 0.00 | 0.10 | 0.03 | 80 | 1003.7 |
| 20260906144533 | 64 | 80 | 1.7 | 10.4 | 0.00 | 0.10 | 0.03 | 82 | 1003.8 |
| 20260906143025 | 63 | 259 | 1.7 | 9.6 | 0.00 | 0.10 | 0.03 | 83 | 1003.9 |
| 20260906141531 | 61 | 9 | 0.9 | 10.4 | 0.00 | 0.10 | 0.03 | 85 | 1004.0 |
| 20260906140015 | 60 | 135 | 0.9 | 11.3 | 0.00 | 0.10 | 0.03 | 87 | 1003.9 |
| 20260906134512 | 60 | 27 | 1.7 | 7.8 | 0.00 | 0.10 | 0.03 | 87 | 1004.1 |
| 20260906133012 | 60 | 342 | 1.7 | 7.0 | 0.00 | 0.10 | 0.03 | 86 | 1004.0 |
| 20260906131522 | 60 | 103 | 1.7 | 7.8 | 0.00 | 0.10 | 0.03 | 87 | 1003.8 |
| 20260906130007 | 59 | 228 | 2.6 | 8.7 | 0.00 | 0.10 | 0.03 | 87 | 1003.8 |
| 20260906124505 | 59 | 71 | 0.9 | 8.7 | 0.00 | 0.11 | 0.03 | 88 | 1003.7 |
| 20260906123002 | 58 | 108 | 1.7 | 4.3 | 0.00 | 0.11 | 0.03 | 89 | 1003.8 |
| 20260906121600 | 58 | 285 | 0.9 | 8.7 | 0.00 | 0.11 | 0.03 | 89 | 1003.8 |
| 20260906120105 | 57 | 253 | 0.9 | 4.3 | 0.00 | 0.11 | 0.03 | 90 | 1003.8 |
| 20260906114557 | 57 | 54 | 1.7 | 7.0 | 0.00 | 0.13 | 0.03 | 91 | 1003.8 |
| 20260906113104 | 56 | 9 | 1.7 | 8.7 | 0.00 | 0.13 | 0.03 | 91 | 1003.7 |
| 20260906111556 | 56 | 263 | 0.9 | 7.8 | 0.00 | 0.13 | 0.03 | 92 | 1003.7 |
| 20260906110054 | 56 | 20 | 0.9 | 8.7 | 0.00 | 0.13 | 0.03 | 92 | 1003.6 |
| 20260906104613 | 56 | 338 | 0.9 | 9.6 | 0.00 | 0.13 | 0.03 | 92 | 1003.6 |
| 20260906103052 | 56 | 122 | 1.7 | 7.0 | 0.00 | 0.13 | 0.03 | 92 | 1003.4 |
| 20260906101551 | 56 | 236 | 0.0 | 5.2 | 0.00 | 0.13 | 0.03 | 92 | 1003.3 |
| 20260906100049 | 55 | 13 | 1.7 | 10.4 | 0.00 | 0.13 | 0.03 | 92 | 1003.2 |
| 20260906094612 | 55 | 113 | 0.9 | 7.0 | 0.00 | 0.13 | 0.03 | 93 | 1003.0 |
| 20260906093047 | 55 | 61 | 0.9 | 10.4 | 0.00 | 0.13 | 0.03 | 93 | 1002.9 |
| 20260906091547 | 55 | 257 | 0.9 | 7.8 | 0.00 | 0.13 | 0.03 | 93 | 1002.7 |
| 20260906090045 | 55 | 77 | 1.7 | 8.7 | 0.00 | 0.13 | 0.03 | 93 | 1002.7 |
| 20260906084543 | 55 | 60 | 1.7 | 7.8 | 0.01 | 0.14 | 0.03 | 93 | 1002.8 |
| 20260906083042 | 55 | 115 | 1.7 | 7.0 | 0.02 | 0.14 | 0.03 | 93 | 1002.7 |
| 20260906081548 | 55 | 49 | 1.7 | 7.0 | 0.02 | 0.14 | 0.03 | 93 | 1002.6 |
| 20260906080046 | 55 | 342 | 1.7 | 9.6 | 0.02 | 0.14 | 0.03 | 93 | 1002.6 |
| 20260906074538 | 55 | 251 | 1.7 | 9.6 | 0.02 | 0.14 | 0.02 | 93 | 1002.6 |
| 20260906073036 | 56 | 165 | 1.7 | 9.6 | 0.01 | 0.13 | 0.01 | 93 | 1002.7 |
| 20260906071535 | 56 | 127 | 1.7 | 7.8 | 0.01 | 0.13 | 0.01 | 93 | 1002.7 |
| 20260906070033 | 56 | 72 | 1.7 | 9.6 | 0.01 | 0.13 | 0.01 | 92 | 1002.5 |
| 20260906064531 | 56 | 290 | 1.7 | 10.4 | 0.00 | 0.12 | 0.00 | 92 | 1002.5 |
| 20260906063033 | 56 | 257 | 1.7 | 8.7 | 0.00 | 0.12 | 0.00 | 92 | 1002.5 |
| 20260906061536 | 57 | 73 | 2.6 | 11.3 | 0.00 | 0.12 | 0.00 | 91 | 1002.5 |
| 20260906060027 | 57 | 68 | 2.6 | 9.6 | 0.00 | 0.12 | 0.00 | 91 | 1002.5 |
| 20260906054523 | 57 | 172 | 2.6 | 11.3 | 0.00 | 0.12 | 0.00 | 91 | 1002.3 |
| 20260906053023 | 57 | 209 | 1.7 | 9.6 | 0.00 | 0.12 | 0.00 | 91 | 1002.4 |
| 20260906051521 | 57 | 323 | 2.6 | 13.0 | 0.00 | 0.12 | 0.00 | 91 | 1002.3 |
| 20260906050021 | 57 | 180 | 1.7 | 10.4 | 0.00 | 0.12 | 0.00 | 91 | 1002.3 |
| 20260906044519 | 57 | 32 | 2.6 | 13.0 | 0.00 | 0.12 | 0.00 | 91 | 1002.5 |
| 20260906043015 | 57 | 142 | 2.6 | 10.4 | 0.00 | 0.12 | 0.00 | 91 | 1002.4 |
| 20260906041514 | 58 | 269 | 2.6 | 9.6 | 0.00 | 0.12 | 0.00 | 91 | 1002.5 |
| 20260906040013 | 58 | 144 | 3.5 | 8.7 | 0.00 | 0.12 | 0.00 | 91 | 1002.6 |
| 20260906034511 | 57 | 45 | 2.6 | 8.7 | 0.00 | 0.12 | 0.00 | 91 | 1002.5 |
| 20260906033009 | 57 | 62 | 1.7 | 12.2 | 0.00 | 0.12 | 0.00 | 91 | 1002.7 |
| 20260906031509 | 57 | 80 | 1.7 | 7.0 | 0.00 | 0.12 | 0.00 | 91 | 1002.9 |
| 20260906030005 | 57 | 325 | 2.6 | 12.2 | 0.00 | 0.12 | 0.00 | 91 | 1002.7 |
| 20260906024504 | 57 | 289 | 2.6 | 13.9 | 0.00 | 0.12 | 0.12 | 91 | 1002.7 |
| 20260906023004 | 57 | 274 | 2.6 | 11.3 | 0.00 | 0.12 | 0.12 | 91 | 1002.6 |
| 20260906021502 | 57 | 191 | 3.5 | 8.7 | 0.00 | 0.12 | 0.12 | 91 | 1002.7 |
| 20260906020002 | 57 | 22 | 1.7 | 9.6 | 0.00 | 0.12 | 0.12 | 91 | 1002.9 |
| 20260906014601 | 57 | 146 | 2.6 | 9.6 | 0.00 | 0.12 | 0.12 | 92 | 1003.1 |
| 20260906013059 | 57 | 41 | 3.5 | 11.3 | 0.00 | 0.12 | 0.12 | 92 | 1003.0 |
| 20260906011558 | 57 | 324 | 1.7 | 9.6 | 0.00 | 0.12 | 0.12 | 92 | 1002.9 |
| 20260906010106 | 57 | 222 | 2.6 | 11.3 | 0.00 | 0.12 | 0.12 | 92 | 1003.1 |
| 20260906004558 | 57 | 91 | 2.6 | 9.6 | 0.00 | 0.12 | 0.12 | 92 | 1003.2 |
| 20260906003059 | 57 | 336 | 1.7 | 7.8 | 0.00 | 0.12 | 0.12 | 93 | 1003.1 |
| 20260906001606 | 57 | 85 | 3.5 | 11.3 | 0.00 | 0.12 | 0.12 | 93 | 1003.1 |
| 20260906000054 | 57 | 260 | 2.6 | 9.6 | 0.00 | 0.12 | 0.12 | 93 | 1003.1 |
| 20260905234551 | 57 | 47 | 2.6 | 8.7 | 0.01 | 0.12 | 0.12 | 93 | 1002.9 |
| 20260905233054 | 57 | 209 | 1.7 | 13.9 | 0.01 | 0.12 | 0.12 | 93 | 1002.7 |
| 20260905231548 | 57 | 114 | 2.6 | 11.3 | 0.02 | 0.12 | 0.12 | 93 | 1002.6 |
| 20260905230052 | 57 | 4 | 1.7 | 12.2 | 0.04 | 0.12 | 0.12 | 93 | 1002.5 |
| 20260905224554 | 57 | 74 | 1.7 | 7.8 | 0.03 | 0.11 | 0.11 | 93 | 1002.2 |
| 20260905223046 | 57 | 105 | 1.7 | 10.4 | 0.03 | 0.11 | 0.11 | 93 | 1002.1 |
| 20260905221547 | 57 | 79 | 1.7 | 7.8 | 0.02 | 0.09 | 0.09 | 93 | 1002.0 |
| 20260905220039 | 58 | 134 | 1.7 | 10.4 | 0.02 | 0.08 | 0.08 | 93 | 1002.0 |
| 20260905214537 | 58 | 92 | 2.6 | 9.6 | 0.02 | 0.08 | 0.08 | 92 | 1001.9 |
| 20260905213036 | 58 | 249 | 2.6 | 11.3 | 0.02 | 0.08 | 0.08 | 92 | 1001.8 |
| 20260905211543 | 58 | 173 | 2.6 | 9.6 | 0.01 | 0.07 | 0.07 | 92 | 1001.7 |
| 20260905210038 | 58 | 125 | 3.5 | 13.0 | 0.00 | 0.06 | 0.06 | 91 | 1001.6 |
| 20260905204530 | 59 | 143 | 3.5 | 13.0 | 0.00 | 0.06 | 0.06 | 91 | 1001.4 |
| 20260905203032 | 59 | 357 | 3.5 | 13.0 | 0.00 | 0.06 | 0.06 | 91 | 1001.2 |
| 20260905201527 | 59 | 70 | 2.6 | 10.4 | 0.00 | 0.06 | 0.06 | 91 | 1001.1 |
| 20260905200035 | 59 | 59 | 3.5 | 9.6 | 0.01 | 0.06 | 0.06 | 91 | 1001.1 |
| 20260905194522 | 58 | 195 | 1.7 | 10.4 | 0.02 | 0.06 | 0.06 | 92 | 1000.9 |
| 20260905193019 | 58 | 36 | 3.5 | 11.3 | 0.02 | 0.06 | 0.06 | 92 | 1000.7 |
| 20260905191516 | 58 | 74 | 3.5 | 17.4 | 0.02 | 0.06 | 0.06 | 92 | 1000.6 |
| 20260905190014 | 59 | 27 | 2.6 | 13.9 | 0.01 | 0.06 | 0.06 | 91 | 1000.6 |
| 20260905184512 | 59 | 108 | 2.6 | 10.4 | 0.00 | 0.05 | 0.05 | 91 | 1000.5 |
| 20260905183010 | 59 | 53 | 4.3 | 12.2 | 0.00 | 0.05 | 0.05 | 91 | 1000.2 |
| 20260905181508 | 60 | 210 | 2.6 | 13.0 | 0.00 | 0.05 | 0.05 | 90 | 1000.1 |